Wolke Sonne

Wetter Ammerndorf

Gehe zu: Roßtal

Tageswerte vom Donnerstag, 17.03.2022

Optionen

Tag:
Erweitert:

Alle Werte vom Donnerstag, 17.03.2022

Einen Moment bitte, die Daten werden aufbereitet...

UhrzeitTemperaturBoden 10cmBoden 20cmFeuchteLuftdruckNiederschlagEvapotranspirationWindWindböenWindrichtungSolarstrahlungUV-IndexSonne?Uhrzeit
Diagramm IconDiagramm IconDiagramm IconDiagramm IconDiagramm IconDiagramm IconDiagramm IconDiagramm IconDiagramm IconDiagramm IconDiagramm IconDiagramm IconDiagramm Icon
00:003,3 °C 5,0 °C 5,0 °C 89 % 1026,5 hPa 0,0 mm - 0,0 km/h 4,7 km/h S 0,0 W/qm 0,0 nein 00:00
00:053,1 °C 5,0 °C 5,0 °C 89 % 1026,4 hPa 0,0 mm 0,0 mm 0,0 km/h 4,7 km/h S 0,0 W/qm 0,0 nein 00:05
00:103,0 °C 5,0 °C 5,0 °C 90 % 1026,4 hPa 0,0 mm 0,0 mm 0,0 km/h 4,7 km/h S 0,0 W/qm 0,0 nein 00:10
00:152,9 °C 5,0 °C 5,0 °C 90 % 1026,4 hPa 0,0 mm - 0,0 km/h 0,0 km/h S 0,0 W/qm 0,0 nein 00:15
00:202,8 °C 5,0 °C 5,0 °C 90 % 1026,3 hPa 0,0 mm - 0,0 km/h 0,0 km/h S 0,0 W/qm 0,0 nein 00:20
00:252,6 °C 5,0 °C 5,0 °C 90 % 1026,4 hPa 0,0 mm - 0,0 km/h 0,0 km/h S 0,0 W/qm 0,0 nein 00:25
00:302,3 °C 5,0 °C 5,0 °C 90 % 1026,3 hPa 0,0 mm - 0,0 km/h 0,0 km/h S 0,0 W/qm 0,0 nein 00:30
00:352,4 °C 5,0 °C 5,0 °C 91 % 1026,4 hPa 0,0 mm - 0,0 km/h 1,4 km/h S 0,0 W/qm 0,0 nein 00:35
00:402,3 °C 5,0 °C 5,0 °C 91 % 1026,3 hPa 0,0 mm - 0,0 km/h 1,4 km/h S 0,0 W/qm 0,0 nein 00:40
00:452,2 °C 5,0 °C 5,0 °C 91 % 1026,4 hPa 0,0 mm - 0,0 km/h 1,4 km/h S 0,0 W/qm 0,0 nein 00:45
00:502,2 °C 5,0 °C 5,0 °C 91 % 1026,4 hPa 0,0 mm - 0,0 km/h 1,4 km/h S 0,0 W/qm 0,0 nein 00:50
00:552,1 °C 5,0 °C 5,0 °C 91 % 1026,5 hPa 0,0 mm - 0,0 km/h 3,2 km/h S 0,0 W/qm 0,0 nein 00:55
01:002,1 °C 5,0 °C 5,0 °C 91 % 1026,5 hPa 0,0 mm - 0,0 km/h 4,7 km/h S 0,0 W/qm 0,0 nein 01:00
01:052,1 °C 5,0 °C 5,0 °C 92 % 1026,5 hPa 0,0 mm 0,0 mm 0,0 km/h 4,7 km/h S 0,0 W/qm 0,0 nein 01:05
01:101,9 °C 5,0 °C 5,0 °C 92 % 1026,6 hPa 0,0 mm 0,0 mm 0,0 km/h 0,0 km/h S 0,0 W/qm 0,0 nein 01:10
01:151,8 °C 5,0 °C 5,0 °C 92 % 1026,5 hPa 0,0 mm - 0,0 km/h 0,0 km/h S 0,0 W/qm 0,0 nein 01:15
01:201,9 °C 5,0 °C 5,0 °C 92 % 1026,4 hPa 0,0 mm - 0,0 km/h 0,0 km/h S 0,0 W/qm 0,0 nein 01:20
01:251,8 °C 5,0 °C 5,0 °C 92 % 1026,3 hPa 0,0 mm - 0,0 km/h 0,0 km/h S 0,0 W/qm 0,0 nein 01:25
01:301,8 °C 5,0 °C 5,0 °C 92 % 1026,3 hPa 0,0 mm - 0,0 km/h 0,0 km/h S 0,0 W/qm 0,0 nein 01:30
01:351,7 °C 5,0 °C 5,0 °C 92 % 1026,3 hPa 0,0 mm - 0,0 km/h 0,0 km/h S 0,0 W/qm 0,0 nein 01:35
01:401,8 °C 5,0 °C 5,0 °C 92 % 1026,2 hPa 0,0 mm - 0,0 km/h 3,2 km/h S 0,0 W/qm 0,0 nein 01:40
01:452,1 °C 5,0 °C 5,0 °C 93 % 1026,0 hPa 0,0 mm - 0,0 km/h 3,2 km/h SW 0,0 W/qm 0,0 nein 01:45
01:502,3 °C 5,0 °C 5,0 °C 93 % 1026,0 hPa 0,0 mm - 1,4 km/h 3,2 km/h SO 0,0 W/qm 0,0 nein 01:50
01:552,5 °C 5,0 °C 5,0 °C 92 % 1026,0 hPa 0,0 mm - 1,4 km/h 4,7 km/h SSO 0,0 W/qm 0,0 nein 01:55
UhrzeitTemperaturBoden 10cmBoden 20cmFeuchteLuftdruckNiederschlagEvapotranspirationWindWindböenWindrichtungSolarstrahlungUV-IndexSonne?Uhrzeit
02:002,9 °C 5,0 °C 5,0 °C 92 % 1025,9 hPa 0,0 mm - 0,0 km/h 4,7 km/h S 0,0 W/qm 0,0 nein 02:00
02:053,3 °C 5,0 °C 5,0 °C 92 % 1026,0 hPa 0,0 mm 0,0 mm 0,0 km/h 4,7 km/h OSO 0,0 W/qm 0,0 nein 02:05
02:103,5 °C 5,0 °C 5,0 °C 91 % 1026,0 hPa 0,0 mm 0,0 mm 0,0 km/h 4,7 km/h SSW 0,0 W/qm 0,0 nein 02:10
02:153,4 °C 5,0 °C 5,0 °C 90 % 1025,8 hPa 0,0 mm - 0,0 km/h 4,7 km/h SSW 0,0 W/qm 0,0 nein 02:15
02:203,4 °C 5,0 °C 5,0 °C 90 % 1025,9 hPa 0,0 mm - 0,0 km/h 4,7 km/h S 0,0 W/qm 0,0 nein 02:20
02:253,4 °C 5,0 °C 5,0 °C 89 % 1025,9 hPa 0,0 mm - 1,4 km/h 4,7 km/h S 0,0 W/qm 0,0 nein 02:25
02:303,3 °C 5,0 °C 5,0 °C 89 % 1025,9 hPa 0,0 mm - 0,0 km/h 4,7 km/h S 0,0 W/qm 0,0 nein 02:30
02:353,3 °C 5,0 °C 5,0 °C 89 % 1025,9 hPa 0,0 mm - 0,0 km/h 4,7 km/h S 0,0 W/qm 0,0 nein 02:35
02:403,0 °C 5,0 °C 5,0 °C 89 % 1025,9 hPa 0,0 mm - 0,0 km/h 4,7 km/h W 0,0 W/qm 0,0 nein 02:40
02:452,8 °C 5,0 °C 5,0 °C 89 % 1025,9 hPa 0,0 mm - 0,0 km/h 1,4 km/h W 0,0 W/qm 0,0 nein 02:45
02:502,8 °C 5,0 °C 5,0 °C 90 % 1025,8 hPa 0,0 mm - 0,0 km/h 3,2 km/h W 0,0 W/qm 0,0 nein 02:50
02:553,0 °C 5,0 °C 5,0 °C 90 % 1025,7 hPa 0,0 mm - 0,0 km/h 3,2 km/h SSW 0,0 W/qm 0,0 nein 02:55
03:003,6 °C 5,0 °C 5,0 °C 90 % 1025,7 hPa 0,0 mm - 1,4 km/h 4,7 km/h SSW 0,0 W/qm 0,0 nein 03:00
03:054,1 °C 5,0 °C 5,0 °C 89 % 1025,5 hPa 0,0 mm 0,0 mm 1,4 km/h 6,5 km/h SSW 0,0 W/qm 0,0 nein 03:05
03:104,4 °C 5,0 °C 5,0 °C 87 % 1025,4 hPa 0,0 mm 0,0 mm 1,4 km/h 7,9 km/h SO 0,0 W/qm 0,0 nein 03:10
03:154,7 °C 5,0 °C 5,0 °C 86 % 1025,4 hPa 0,0 mm - 1,4 km/h 7,9 km/h ONO 0,0 W/qm 0,0 nein 03:15
03:204,8 °C 5,0 °C 5,0 °C 85 % 1025,2 hPa 0,0 mm - 1,4 km/h 7,9 km/h SSO 0,0 W/qm 0,0 nein 03:20
03:254,9 °C 5,0 °C 5,0 °C 84 % 1025,2 hPa 0,0 mm - 1,4 km/h 6,5 km/h S 0,0 W/qm 0,0 nein 03:25
03:305,0 °C 5,0 °C 5,0 °C 83 % 1025,1 hPa 0,0 mm - 1,4 km/h 7,9 km/h SSW 0,0 W/qm 0,0 nein 03:30
03:355,1 °C 5,0 °C 5,0 °C 83 % 1025,2 hPa 0,0 mm - 3,2 km/h 7,9 km/h NNO 0,0 W/qm 0,0 nein 03:35
03:405,2 °C 5,0 °C 5,0 °C 82 % 1025,1 hPa 0,0 mm - 3,2 km/h 9,7 km/h OSO 0,0 W/qm 0,0 nein 03:40
03:455,3 °C 5,0 °C 5,0 °C 82 % 1025,0 hPa 0,0 mm - 1,4 km/h 11,2 km/h SSO 0,0 W/qm 0,0 nein 03:45
03:505,2 °C 5,0 °C 5,0 °C 81 % 1025,1 hPa 0,0 mm - 1,4 km/h 11,2 km/h SO 0,0 W/qm 0,0 nein 03:50
03:555,3 °C 5,0 °C 5,0 °C 81 % 1024,9 hPa 0,0 mm - 1,4 km/h 11,2 km/h SSW 0,0 W/qm 0,0 nein 03:55
UhrzeitTemperaturBoden 10cmBoden 20cmFeuchteLuftdruckNiederschlagEvapotranspirationWindWindböenWindrichtungSolarstrahlungUV-IndexSonne?Uhrzeit
04:005,3 °C 5,0 °C 5,0 °C 81 % 1024,9 hPa 0,0 mm - 1,4 km/h 7,9 km/h ONO 0,0 W/qm 0,0 nein 04:00
04:055,2 °C 5,0 °C 5,0 °C 81 % 1025,0 hPa 0,0 mm 0,0 mm 3,2 km/h 6,5 km/h SO 0,0 W/qm 0,0 nein 04:05
04:105,2 °C 4,4 °C 5,0 °C 81 % 1025,1 hPa 0,0 mm 0,0 mm 1,4 km/h 9,7 km/h SSO 0,0 W/qm 0,0 nein 04:10
04:155,2 °C 4,4 °C 5,0 °C 81 % 1025,1 hPa 0,0 mm - 1,4 km/h 9,7 km/h SSO 0,0 W/qm 0,0 nein 04:15
04:205,2 °C 4,4 °C 5,0 °C 81 % 1025,2 hPa 0,0 mm - 1,4 km/h 9,7 km/h SSO 0,0 W/qm 0,0 nein 04:20
04:255,2 °C 4,4 °C 5,0 °C 81 % 1025,2 hPa 0,0 mm - 1,4 km/h 6,5 km/h SSW 0,0 W/qm 0,0 nein 04:25
04:305,2 °C 4,4 °C 5,0 °C 81 % 1025,5 hPa 0,0 mm - 1,4 km/h 6,5 km/h OSO 0,0 W/qm 0,0 nein 04:30
04:355,3 °C 4,4 °C 5,0 °C 81 % 1025,6 hPa 0,0 mm - 1,4 km/h 6,5 km/h SSO 0,0 W/qm 0,0 nein 04:35
04:405,2 °C 4,4 °C 5,0 °C 81 % 1025,8 hPa 0,0 mm - 0,0 km/h 6,5 km/h SSO 0,0 W/qm 0,0 nein 04:40
04:455,0 °C 4,4 °C 5,0 °C 81 % 1025,8 hPa 0,0 mm - 0,0 km/h 4,7 km/h ONO 0,0 W/qm 0,0 nein 04:45
04:505,0 °C 4,4 °C 5,0 °C 82 % 1025,9 hPa 0,0 mm - 0,0 km/h 4,7 km/h S 0,0 W/qm 0,0 nein 04:50
04:554,7 °C 4,4 °C 5,0 °C 82 % 1026,1 hPa 0,0 mm - 0,0 km/h 4,7 km/h S 0,0 W/qm 0,0 nein 04:55
05:004,3 °C 4,4 °C 5,0 °C 83 % 1026,0 hPa 0,0 mm - 0,0 km/h 4,7 km/h S 0,0 W/qm 0,0 nein 05:00
05:054,1 °C 4,4 °C 5,0 °C 84 % 1026,1 hPa 0,0 mm 0,0 mm 1,4 km/h 3,2 km/h ONO 0,0 W/qm 0,0 nein 05:05
05:103,9 °C 4,4 °C 5,0 °C 85 % 1026,1 hPa 0,0 mm 0,0 mm 1,4 km/h 3,2 km/h ONO 0,0 W/qm 0,0 nein 05:10
05:153,9 °C 4,4 °C 5,0 °C 86 % 1026,2 hPa 0,0 mm - 0,0 km/h 4,7 km/h SSO 0,0 W/qm 0,0 nein 05:15
05:203,8 °C 4,4 °C 5,0 °C 86 % 1026,2 hPa 0,0 mm - 0,0 km/h 4,7 km/h SSO 0,0 W/qm 0,0 nein 05:20
05:254,2 °C 4,4 °C 5,0 °C 86 % 1026,1 hPa 0,0 mm - 0,0 km/h 3,2 km/h S 0,0 W/qm 0,0 nein 05:25
05:304,5 °C 4,4 °C 5,0 °C 85 % 1026,1 hPa 0,0 mm - 1,4 km/h 4,7 km/h S 0,0 W/qm 0,0 nein 05:30
05:354,4 °C 4,4 °C 5,0 °C 84 % 1026,2 hPa 0,0 mm - 0,0 km/h 4,7 km/h S 0,0 W/qm 0,0 nein 05:35
05:404,6 °C 4,4 °C 5,0 °C 84 % 1026,2 hPa 0,0 mm - 1,4 km/h 6,5 km/h SSO 0,0 W/qm 0,0 nein 05:40
05:454,8 °C 4,4 °C 5,0 °C 83 % 1026,3 hPa 0,0 mm - 1,4 km/h 6,5 km/h OSO 0,0 W/qm 0,0 nein 05:45
05:504,9 °C 4,4 °C 5,0 °C 82 % 1026,2 hPa 0,0 mm - 1,4 km/h 6,5 km/h SO 0,0 W/qm 0,0 nein 05:50
05:554,8 °C 4,4 °C 5,0 °C 82 % 1026,4 hPa 0,0 mm - 1,4 km/h 6,5 km/h SSO 0,0 W/qm 0,0 nein 05:55
UhrzeitTemperaturBoden 10cmBoden 20cmFeuchteLuftdruckNiederschlagEvapotranspirationWindWindböenWindrichtungSolarstrahlungUV-IndexSonne?Uhrzeit
06:004,6 °C 4,4 °C 5,0 °C 82 % 1026,4 hPa 0,0 mm - 0,0 km/h 6,5 km/h SSO 0,0 W/qm 0,0 nein 06:00
06:054,6 °C 4,4 °C 5,0 °C 83 % 1026,5 hPa 0,0 mm 0,0 mm 0,0 km/h 4,7 km/h SSO 0,0 W/qm 0,0 nein 06:05
06:104,6 °C 4,4 °C 5,0 °C 83 % 1026,5 hPa 0,0 mm 0,0 mm 1,4 km/h 3,2 km/h S 0,0 W/qm 0,0 nein 06:10
06:154,5 °C 4,4 °C 5,0 °C 83 % 1026,5 hPa 0,0 mm - 3,2 km/h 4,7 km/h S 0,0 W/qm 0,0 nein 06:15
06:204,3 °C 4,4 °C 5,0 °C 83 % 1026,5 hPa 0,0 mm - 1,4 km/h 6,5 km/h S 0,0 W/qm 0,0 nein 06:20
06:254,1 °C 4,4 °C 5,0 °C 84 % 1026,6 hPa 0,0 mm - 0,0 km/h 6,5 km/h S 0,0 W/qm 0,0 nein 06:25
06:303,8 °C 4,4 °C 5,0 °C 85 % 1026,6 hPa 0,0 mm - 0,0 km/h 6,5 km/h S 0,0 W/qm 0,0 nein 06:30
06:353,9 °C 4,4 °C 5,0 °C 85 % 1026,6 hPa 0,0 mm - 0,0 km/h 4,7 km/h S 0,0 W/qm 0,0 nein 06:35
06:403,7 °C 4,4 °C 5,0 °C 86 % 1026,6 hPa 0,0 mm - 0,0 km/h 4,7 km/h S 5,0 W/qm 0,0 nein 06:40
06:453,7 °C 4,4 °C 5,0 °C 86 % 1026,6 hPa 0,0 mm - 0,0 km/h 4,7 km/h S 7,0 W/qm 0,0 nein 06:45
06:503,7 °C 4,4 °C 5,0 °C 86 % 1026,6 hPa 0,0 mm - 0,0 km/h 3,2 km/h S 9,0 W/qm 0,0 nein 06:50
06:553,4 °C 4,4 °C 5,0 °C 87 % 1026,8 hPa 0,0 mm - 0,0 km/h 3,2 km/h S 11,0 W/qm 0,0 nein 06:55
07:003,4 °C 4,4 °C 5,0 °C 87 % 1026,8 hPa 0,0 mm - 0,0 km/h 3,2 km/h S 14,0 W/qm 0,0 nein 07:00
07:053,4 °C 4,4 °C 5,0 °C 88 % 1026,8 hPa 0,0 mm 0,0 mm 0,0 km/h 1,4 km/h S 18,0 W/qm 0,0 nein 07:05
07:103,5 °C 4,4 °C 5,0 °C 88 % 1026,9 hPa 0,0 mm 0,0 mm 0,0 km/h 4,7 km/h S 21,0 W/qm 0,0 nein 07:10
07:153,5 °C 4,4 °C 5,0 °C 87 % 1027,0 hPa 0,0 mm - 0,0 km/h 4,7 km/h S 25,0 W/qm 0,0 nein 07:15
07:203,6 °C 4,4 °C 5,0 °C 87 % 1027,0 hPa 0,0 mm - 0,0 km/h 3,2 km/h S 30,0 W/qm 0,0 nein 07:20
07:253,9 °C 4,4 °C 5,0 °C 87 % 1027,0 hPa 0,0 mm - 0,0 km/h 3,2 km/h S 35,0 W/qm 0,0 nein 07:25
07:304,2 °C 4,4 °C 5,0 °C 86 % 1027,0 hPa 0,0 mm - 1,4 km/h 4,7 km/h S 40,0 W/qm 0,0 nein 07:30
07:354,3 °C 4,4 °C 5,0 °C 85 % 1026,9 hPa 0,0 mm - 1,4 km/h 4,7 km/h SSO 47,0 W/qm 0,0 nein 07:35
07:404,6 °C 4,4 °C 5,0 °C 85 % 1026,9 hPa 0,0 mm - 1,4 km/h 4,7 km/h SSO 54,0 W/qm 0,0 nein 07:40
07:454,8 °C 4,4 °C 5,0 °C 84 % 1026,8 hPa 0,0 mm - 3,2 km/h 6,5 km/h SSW 62,0 W/qm 0,0 nein 07:45
07:504,9 °C 4,4 °C 5,0 °C 83 % 1026,9 hPa 0,0 mm - 1,4 km/h 7,9 km/h OSO 67,0 W/qm 0,0 nein 07:50
07:555,2 °C 4,4 °C 5,0 °C 82 % 1026,8 hPa 0,0 mm - 1,4 km/h 7,9 km/h SW 74,0 W/qm 0,0 nein 07:55
UhrzeitTemperaturBoden 10cmBoden 20cmFeuchteLuftdruckNiederschlagEvapotranspirationWindWindböenWindrichtungSolarstrahlungUV-IndexSonne?Uhrzeit
08:005,4 °C 4,4 °C 5,0 °C 82 % 1026,8 hPa 0,0 mm - 1,4 km/h 7,9 km/h S 79,0 W/qm 0,0 nein 08:00
08:055,5 °C 4,4 °C 5,0 °C 81 % 1026,9 hPa 0,0 mm 0,0 mm 1,4 km/h 6,5 km/h S 86,0 W/qm 0,0 nein 08:05
08:105,6 °C 4,4 °C 5,0 °C 80 % 1026,8 hPa 0,0 mm 0,0 mm 1,4 km/h 6,5 km/h SSO 93,0 W/qm 0,0 nein 08:10
08:155,7 °C 4,4 °C 5,0 °C 80 % 1026,7 hPa 0,0 mm - 1,4 km/h 7,9 km/h S 100,0 W/qm 0,0 nein 08:15
08:205,8 °C 4,4 °C 5,0 °C 79 % 1026,7 hPa 0,0 mm - 1,4 km/h 7,9 km/h SSO 107,0 W/qm 0,0 nein 08:20
08:255,8 °C 4,4 °C 5,0 °C 79 % 1026,8 hPa 0,0 mm - 1,4 km/h 7,9 km/h SSO 114,0 W/qm 0,0 nein 08:25
08:305,9 °C 4,4 °C 5,0 °C 79 % 1026,8 hPa 0,0 mm - 1,4 km/h 6,5 km/h O 121,0 W/qm 0,0 nein 08:30
08:355,9 °C 4,4 °C 5,0 °C 79 % 1026,8 hPa 0,0 mm - 1,4 km/h 6,5 km/h SSO 125,0 W/qm 0,0 nein 08:35
08:406,1 °C 4,4 °C 5,0 °C 79 % 1026,9 hPa 0,0 mm - 0,0 km/h 7,9 km/h SSO 127,0 W/qm 0,0 nein 08:40
08:456,2 °C 4,4 °C 5,0 °C 79 % 1026,9 hPa 0,0 mm - 1,4 km/h 7,9 km/h S 123,0 W/qm 0,0 nein 08:45
08:506,2 °C 4,4 °C 5,0 °C 78 % 1027,1 hPa 0,0 mm - 1,4 km/h 4,7 km/h SSW 121,0 W/qm 0,0 nein 08:50
08:556,3 °C 4,4 °C 5,0 °C 78 % 1027,1 hPa 0,0 mm - 1,4 km/h 6,5 km/h S 118,0 W/qm 0,0 nein 08:55
09:006,3 °C 4,4 °C 5,0 °C 78 % 1027,3 hPa 0,0 mm - 1,4 km/h 6,5 km/h S 118,0 W/qm 0,0 nein 09:00
09:056,3 °C 4,4 °C 5,0 °C 78 % 1027,3 hPa 0,0 mm 0,1 mm 1,4 km/h 6,5 km/h S 121,0 W/qm 0,0 nein 09:05
09:106,3 °C 4,4 °C 5,0 °C 77 % 1027,5 hPa 0,0 mm 0,1 mm 0,0 km/h 6,5 km/h S 128,0 W/qm 0,0 nein 09:10
09:156,4 °C 4,4 °C 5,0 °C 77 % 1027,5 hPa 0,0 mm - 0,0 km/h 6,5 km/h S 134,0 W/qm 0,0 nein 09:15
09:206,6 °C 4,4 °C 5,0 °C 77 % 1027,4 hPa 0,0 mm - 0,0 km/h 4,7 km/h S 137,0 W/qm 0,0 nein 09:20
09:256,6 °C 4,4 °C 5,0 °C 77 % 1027,4 hPa 0,0 mm - 0,0 km/h 3,2 km/h S 142,0 W/qm 0,0 nein 09:25
09:306,7 °C 4,4 °C 5,0 °C 77 % 1027,3 hPa 0,0 mm - 0,0 km/h 3,2 km/h S 146,0 W/qm 0,0 nein 09:30
09:356,8 °C 4,4 °C 5,0 °C 77 % 1027,3 hPa 0,0 mm - 1,4 km/h 4,7 km/h S 148,0 W/qm 0,0 nein 09:35
09:406,8 °C 4,4 °C 5,0 °C 76 % 1027,3 hPa 0,0 mm - 1,4 km/h 7,9 km/h SSO 151,0 W/qm 0,0 nein 09:40
09:456,9 °C 4,4 °C 5,0 °C 77 % 1027,4 hPa 0,0 mm - 1,4 km/h 7,9 km/h SO 160,0 W/qm 0,0 nein 09:45
09:507,0 °C 4,4 °C 5,0 °C 76 % 1027,4 hPa 0,0 mm - 1,4 km/h 6,5 km/h S 165,0 W/qm 0,0 nein 09:50
09:557,1 °C 4,4 °C 5,0 °C 76 % 1027,4 hPa 0,0 mm - 1,4 km/h 6,5 km/h SSO 169,0 W/qm 0,0 nein 09:55
UhrzeitTemperaturBoden 10cmBoden 20cmFeuchteLuftdruckNiederschlagEvapotranspirationWindWindböenWindrichtungSolarstrahlungUV-IndexSonne?Uhrzeit
10:007,2 °C 4,4 °C 5,0 °C 75 % 1027,5 hPa 0,0 mm - 3,2 km/h 7,9 km/h SSO 172,0 W/qm 0,0 nein 10:00
10:057,2 °C 4,4 °C 5,0 °C 76 % 1027,5 hPa 0,0 mm 0,2 mm 1,4 km/h 7,9 km/h OSO 174,0 W/qm 0,0 nein 10:05
10:107,3 °C 4,4 °C 5,0 °C 76 % 1027,4 hPa 0,0 mm 0,2 mm 1,4 km/h 7,9 km/h SSO 174,0 W/qm 0,0 nein 10:10
10:157,4 °C 4,4 °C 5,0 °C 76 % 1027,4 hPa 0,0 mm - 1,4 km/h 7,9 km/h SSO 179,0 W/qm 0,0 nein 10:15
10:207,5 °C 4,4 °C 5,0 °C 75 % 1027,4 hPa 0,0 mm - 1,4 km/h 6,5 km/h SSO 186,0 W/qm 0,0 nein 10:20
10:257,6 °C 4,4 °C 5,0 °C 75 % 1027,5 hPa 0,0 mm - 1,4 km/h 6,5 km/h SSO 190,0 W/qm 0,0 nein 10:25
10:307,7 °C 4,4 °C 5,0 °C 74 % 1027,5 hPa 0,0 mm - 1,4 km/h 6,5 km/h SSO 195,0 W/qm 0,0 nein 10:30
10:357,8 °C 4,4 °C 5,0 °C 74 % 1027,4 hPa 0,0 mm - 1,4 km/h 6,5 km/h SO 197,0 W/qm 0,0 nein 10:35
10:407,9 °C 5,0 °C 5,0 °C 73 % 1027,4 hPa 0,0 mm - 3,2 km/h 6,5 km/h SO 200,0 W/qm 0,0 nein 10:40
10:457,9 °C 5,0 °C 5,0 °C 73 % 1027,4 hPa 0,0 mm - 1,4 km/h 7,9 km/h SSO 202,0 W/qm 0,0 nein 10:45
10:508,0 °C 5,0 °C 5,0 °C 73 % 1027,2 hPa 0,0 mm - 1,4 km/h 7,9 km/h SSO 204,0 W/qm 0,0 nein 10:50
10:558,0 °C 5,0 °C 5,0 °C 72 % 1027,2 hPa 0,0 mm - 3,2 km/h 7,9 km/h S 206,0 W/qm 0,0 nein 10:55
11:008,1 °C 5,0 °C 5,0 °C 72 % 1027,4 hPa 0,0 mm - 3,2 km/h 9,7 km/h SSO 199,0 W/qm 0,0 nein 11:00
11:058,3 °C 5,0 °C 5,0 °C 72 % 1027,5 hPa 0,0 mm 0,3 mm 3,2 km/h 9,7 km/h S 183,0 W/qm 0,0 nein 11:05
11:108,2 °C 5,0 °C 5,0 °C 71 % 1027,6 hPa 0,0 mm 0,3 mm 1,4 km/h 9,7 km/h SSO 178,0 W/qm 0,0 nein 11:10
11:158,2 °C 5,0 °C 5,0 °C 71 % 1027,7 hPa 0,0 mm - 3,2 km/h 9,7 km/h SSO 174,0 W/qm 0,0 nein 11:15
11:208,2 °C 5,0 °C 5,0 °C 71 % 1027,6 hPa 0,0 mm - 3,2 km/h 9,7 km/h SSO 169,0 W/qm 0,0 nein 11:20
11:258,2 °C 5,0 °C 5,0 °C 70 % 1027,7 hPa 0,0 mm - 1,4 km/h 9,7 km/h SSO 167,0 W/qm 0,0 nein 11:25
11:308,4 °C 5,0 °C 5,0 °C 71 % 1027,7 hPa 0,0 mm - 1,4 km/h 9,7 km/h SSO 169,0 W/qm 0,0 nein 11:30
11:358,4 °C 5,0 °C 5,0 °C 71 % 1027,7 hPa 0,0 mm - 1,4 km/h 4,7 km/h O 172,0 W/qm 0,0 nein 11:35
11:408,4 °C 5,0 °C 5,0 °C 69 % 1027,8 hPa 0,0 mm - 1,4 km/h 4,7 km/h S 176,0 W/qm 0,0 nein 11:40
11:458,5 °C 5,0 °C 5,0 °C 69 % 1027,8 hPa 0,0 mm - 3,2 km/h 6,5 km/h S 179,0 W/qm 0,0 nein 11:45
11:508,7 °C 5,0 °C 5,0 °C 69 % 1027,8 hPa 0,0 mm - 1,4 km/h 7,9 km/h SO 181,0 W/qm 0,0 nein 11:50
11:558,7 °C 5,0 °C 5,0 °C 68 % 1027,8 hPa 0,0 mm - 3,2 km/h 7,9 km/h SO 179,0 W/qm 0,0 nein 11:55
UhrzeitTemperaturBoden 10cmBoden 20cmFeuchteLuftdruckNiederschlagEvapotranspirationWindWindböenWindrichtungSolarstrahlungUV-IndexSonne?Uhrzeit
12:008,6 °C 5,0 °C 5,0 °C 68 % 1027,8 hPa 0,0 mm - 3,2 km/h 7,9 km/h SSO 174,0 W/qm 0,0 nein 12:00
12:058,7 °C 5,0 °C 5,0 °C 68 % 1027,8 hPa 0,0 mm 0,3 mm 3,2 km/h 7,9 km/h S 171,0 W/qm 0,0 nein 12:05
12:108,7 °C 5,0 °C 5,0 °C 68 % 1027,8 hPa 0,0 mm 0,3 mm 3,2 km/h 7,9 km/h S 165,0 W/qm 0,0 nein 12:10
12:158,7 °C 5,0 °C 5,0 °C 68 % 1027,8 hPa 0,0 mm - 3,2 km/h 9,7 km/h SSO 162,0 W/qm 0,0 nein 12:15
12:208,7 °C 5,0 °C 5,0 °C 67 % 1027,8 hPa 0,0 mm - 3,2 km/h 9,7 km/h S 162,0 W/qm 0,0 nein 12:20
12:258,8 °C 5,0 °C 5,0 °C 68 % 1027,8 hPa 0,0 mm - 3,2 km/h 9,7 km/h SSO 162,0 W/qm 0,0 nein 12:25
12:308,8 °C 5,0 °C 5,0 °C 67 % 1027,7 hPa 0,0 mm - 3,2 km/h 9,7 km/h S 165,0 W/qm 0,0 nein 12:30
12:358,9 °C 5,0 °C 5,0 °C 67 % 1027,7 hPa 0,0 mm - 3,2 km/h 9,7 km/h S 171,0 W/qm 0,0 nein 12:35
12:408,9 °C 5,0 °C 5,0 °C 67 % 1027,6 hPa 0,0 mm - 3,2 km/h 14,4 km/h O 167,0 W/qm 0,0 nein 12:40
12:458,9 °C 5,0 °C 5,0 °C 67 % 1027,6 hPa 0,0 mm - 3,2 km/h 14,4 km/h SO 158,0 W/qm 0,0 nein 12:45
12:508,9 °C 5,0 °C 5,0 °C 67 % 1027,6 hPa 0,0 mm - 1,4 km/h 14,4 km/h S 151,0 W/qm 0,0 nein 12:50
12:558,9 °C 5,0 °C 5,0 °C 67 % 1027,6 hPa 0,0 mm - 1,4 km/h 7,9 km/h SSO 148,0 W/qm 0,0 nein 12:55
13:008,9 °C 5,0 °C 5,0 °C 67 % 1027,7 hPa 0,0 mm - 3,2 km/h 7,9 km/h S 142,0 W/qm 0,0 nein 13:00
13:059,0 °C 5,0 °C 5,0 °C 68 % 1027,7 hPa 0,0 mm 0,4 mm 1,4 km/h 7,9 km/h S 137,0 W/qm 0,0 nein 13:05
13:109,1 °C 5,0 °C 5,0 °C 67 % 1027,7 hPa 0,0 mm 0,4 mm 0,0 km/h 7,9 km/h SW 137,0 W/qm 0,0 nein 13:10
13:159,1 °C 5,0 °C 5,0 °C 67 % 1027,7 hPa 0,0 mm - 1,4 km/h 7,9 km/h S 135,0 W/qm 0,0 nein 13:15
13:209,1 °C 5,0 °C 5,0 °C 67 % 1027,8 hPa 0,0 mm - 1,4 km/h 6,5 km/h SSW 139,0 W/qm 0,0 nein 13:20
13:259,1 °C 5,0 °C 5,0 °C 67 % 1027,8 hPa 0,0 mm - 1,4 km/h 6,5 km/h SSW 153,0 W/qm 0,0 nein 13:25
13:309,2 °C 5,0 °C 5,0 °C 67 % 1027,8 hPa 0,0 mm - 1,4 km/h 6,5 km/h SSW 165,0 W/qm 0,0 nein 13:30
13:359,2 °C 5,0 °C 5,0 °C 66 % 1027,8 hPa 0,0 mm - 1,4 km/h 6,5 km/h SSW 172,0 W/qm 0,0 nein 13:35
13:409,3 °C 5,0 °C 5,0 °C 66 % 1027,8 hPa 0,0 mm - 0,0 km/h 6,5 km/h SSW 172,0 W/qm 0,0 nein 13:40
13:459,2 °C 5,0 °C 5,0 °C 68 % 1027,9 hPa 0,0 mm - 0,0 km/h 6,5 km/h SSW 167,0 W/qm 0,0 nein 13:45
13:509,1 °C 5,0 °C 5,0 °C 68 % 1027,9 hPa 0,0 mm - 1,4 km/h 3,2 km/h SSW 162,0 W/qm 0,0 nein 13:50
13:559,1 °C 5,0 °C 5,0 °C 69 % 1027,9 hPa 0,0 mm - 0,0 km/h 3,2 km/h SSW 158,0 W/qm 0,0 nein 13:55
UhrzeitTemperaturBoden 10cmBoden 20cmFeuchteLuftdruckNiederschlagEvapotranspirationWindWindböenWindrichtungSolarstrahlungUV-IndexSonne?Uhrzeit
14:009,1 °C 5,0 °C 5,0 °C 68 % 1027,9 hPa 0,0 mm - 0,0 km/h 3,2 km/h SSW 155,0 W/qm 0,0 nein 14:00
14:059,0 °C 5,0 °C 5,0 °C 67 % 1027,9 hPa 0,0 mm 0,5 mm 0,0 km/h 3,2 km/h SSW 153,0 W/qm 0,0 nein 14:05
14:109,0 °C 5,0 °C 5,0 °C 68 % 1027,9 hPa 0,0 mm 0,5 mm 0,0 km/h 3,2 km/h SSW 153,0 W/qm 0,0 nein 14:10
14:159,1 °C 5,0 °C 5,0 °C 69 % 1028,0 hPa 0,0 mm - 1,4 km/h 3,2 km/h NO 155,0 W/qm 0,0 nein 14:15
14:209,1 °C 5,0 °C 5,0 °C 69 % 1027,9 hPa 0,0 mm - 3,2 km/h 4,7 km/h NO 155,0 W/qm 0,0 nein 14:20
14:259,1 °C 5,0 °C 5,0 °C 70 % 1027,9 hPa 0,0 mm - 4,7 km/h 7,9 km/h NO 155,0 W/qm 0,0 nein 14:25
14:309,1 °C 5,0 °C 5,0 °C 69 % 1027,9 hPa 0,0 mm - 3,2 km/h 7,9 km/h NO 155,0 W/qm 0,0 nein 14:30
14:359,1 °C 5,0 °C 5,0 °C 69 % 1027,9 hPa 0,0 mm - 1,4 km/h 7,9 km/h NO 160,0 W/qm 0,0 nein 14:35
14:409,1 °C 5,0 °C 5,0 °C 69 % 1027,9 hPa 0,0 mm - 1,4 km/h 6,5 km/h NO 165,0 W/qm 0,0 nein 14:40
14:459,1 °C 5,6 °C 5,0 °C 68 % 1027,9 hPa 0,0 mm - 1,4 km/h 6,5 km/h NO 155,0 W/qm 0,0 nein 14:45
14:509,2 °C 5,6 °C 5,0 °C 68 % 1028,0 hPa 0,0 mm - 1,4 km/h 4,7 km/h NO 139,0 W/qm 0,0 nein 14:50
14:559,2 °C 5,6 °C 5,0 °C 68 % 1028,0 hPa 0,0 mm - 1,4 km/h 6,5 km/h NO 134,0 W/qm 0,0 nein 14:55
15:009,2 °C 5,6 °C 5,0 °C 67 % 1028,1 hPa 0,0 mm - 1,4 km/h 6,5 km/h ONO 130,0 W/qm 0,0 nein 15:00
15:059,2 °C 5,6 °C 5,0 °C 67 % 1028,2 hPa 0,0 mm 0,6 mm 3,2 km/h 6,5 km/h ONO 128,0 W/qm 0,0 nein 15:05
15:109,2 °C 5,6 °C 5,0 °C 67 % 1028,3 hPa 0,0 mm 0,6 mm 1,4 km/h 6,5 km/h ONO 134,0 W/qm 0,0 nein 15:10
15:159,3 °C 5,6 °C 5,0 °C 67 % 1028,3 hPa 0,0 mm - 1,4 km/h 6,5 km/h ONO 139,0 W/qm 0,0 nein 15:15
15:209,2 °C 5,6 °C 5,0 °C 67 % 1028,3 hPa 0,0 mm - 3,2 km/h 6,5 km/h ONO 144,0 W/qm 0,0 nein 15:20
15:259,3 °C 5,6 °C 5,0 °C 67 % 1028,3 hPa 0,0 mm - 1,4 km/h 6,5 km/h ONO 139,0 W/qm 0,0 nein 15:25
15:309,3 °C 5,6 °C 5,0 °C 67 % 1028,4 hPa 0,0 mm - 0,0 km/h 6,5 km/h ONO 130,0 W/qm 0,0 nein 15:30
15:359,4 °C 5,6 °C 5,0 °C 66 % 1028,5 hPa 0,0 mm - 0,0 km/h 6,5 km/h NW 127,0 W/qm 0,0 nein 15:35
15:409,4 °C 5,6 °C 5,0 °C 68 % 1028,5 hPa 0,0 mm - 1,4 km/h 3,2 km/h ONO 118,0 W/qm 0,0 nein 15:40
15:459,3 °C 5,6 °C 5,0 °C 67 % 1028,5 hPa 0,0 mm - 1,4 km/h 6,5 km/h ONO 113,0 W/qm 0,0 nein 15:45
15:509,3 °C 5,6 °C 5,0 °C 68 % 1028,5 hPa 0,0 mm - 1,4 km/h 6,5 km/h NO 111,0 W/qm 0,0 nein 15:50
15:559,3 °C 5,6 °C 5,0 °C 68 % 1028,6 hPa 0,0 mm - 3,2 km/h 6,5 km/h NO 109,0 W/qm 0,0 nein 15:55
UhrzeitTemperaturBoden 10cmBoden 20cmFeuchteLuftdruckNiederschlagEvapotranspirationWindWindböenWindrichtungSolarstrahlungUV-IndexSonne?Uhrzeit
16:009,3 °C 5,6 °C 5,0 °C 69 % 1028,6 hPa 0,0 mm - 4,7 km/h 6,5 km/h NO 105,0 W/qm 0,0 nein 16:00
16:059,2 °C 5,6 °C 5,0 °C 69 % 1028,7 hPa 0,0 mm 0,6 mm 4,7 km/h 6,5 km/h NO 98,0 W/qm 0,0 nein 16:05
16:109,2 °C 5,6 °C 5,0 °C 69 % 1028,7 hPa 0,0 mm 0,6 mm 4,7 km/h 7,9 km/h NO 91,0 W/qm 0,0 nein 16:10
16:159,2 °C 5,6 °C 5,0 °C 70 % 1028,7 hPa 0,0 mm - 4,7 km/h 7,9 km/h NO 86,0 W/qm 0,0 nein 16:15
16:209,2 °C 5,6 °C 5,0 °C 70 % 1028,7 hPa 0,0 mm - 3,2 km/h 7,9 km/h NO 81,0 W/qm 0,0 nein 16:20
16:259,1 °C 5,6 °C 5,0 °C 70 % 1028,9 hPa 0,0 mm - 1,4 km/h 6,5 km/h NO 72,0 W/qm 0,0 nein 16:25
16:309,1 °C 5,6 °C 5,0 °C 69 % 1029,0 hPa 0,0 mm - 1,4 km/h 6,5 km/h ONO 63,0 W/qm 0,0 nein 16:30
16:359,1 °C 5,6 °C 5,0 °C 70 % 1029,1 hPa 0,0 mm - 1,4 km/h 6,5 km/h N 56,0 W/qm 0,0 nein 16:35
16:409,1 °C 5,6 °C 5,0 °C 70 % 1029,2 hPa 0,0 mm - 1,4 km/h 4,7 km/h N 51,0 W/qm 0,0 nein 16:40
16:459,0 °C 5,6 °C 5,0 °C 70 % 1029,2 hPa 0,0 mm - 1,4 km/h 4,7 km/h NNO 49,0 W/qm 0,0 nein 16:45
16:508,9 °C 5,6 °C 5,0 °C 72 % 1029,3 hPa 0,0 mm - 1,4 km/h 4,7 km/h ONO 51,0 W/qm 0,0 nein 16:50
16:558,8 °C 5,6 °C 5,0 °C 72 % 1029,3 hPa 0,0 mm - 3,2 km/h 6,5 km/h ONO 53,0 W/qm 0,0 nein 16:55
17:008,7 °C 5,6 °C 5,0 °C 72 % 1029,4 hPa 0,0 mm - 1,4 km/h 6,5 km/h NO 49,0 W/qm 0,0 nein 17:00
17:058,7 °C 5,6 °C 5,0 °C 72 % 1029,4 hPa 0,0 mm 0,7 mm 1,4 km/h 6,5 km/h NW 46,0 W/qm 0,0 nein 17:05
17:108,7 °C 5,6 °C 5,0 °C 72 % 1029,5 hPa 0,0 mm 0,7 mm 1,4 km/h 4,7 km/h NW 40,0 W/qm 0,0 nein 17:10
17:158,6 °C 5,6 °C 5,0 °C 72 % 1029,5 hPa 0,0 mm - 1,4 km/h 4,7 km/h NW 37,0 W/qm 0,0 nein 17:15
17:208,6 °C 5,6 °C 5,0 °C 72 % 1029,7 hPa 0,0 mm - 0,0 km/h 4,7 km/h NW 32,0 W/qm 0,0 nein 17:20
17:258,5 °C 5,6 °C 5,0 °C 73 % 1029,8 hPa 0,0 mm - 0,0 km/h 4,7 km/h NW 26,0 W/qm 0,0 nein 17:25
17:308,4 °C 5,6 °C 5,0 °C 73 % 1029,8 hPa 0,0 mm - 0,0 km/h 4,7 km/h NW 25,0 W/qm 0,0 nein 17:30
17:358,4 °C 5,6 °C 5,0 °C 73 % 1029,9 hPa 0,0 mm - 0,0 km/h 0,0 km/h NW 21,0 W/qm 0,0 nein 17:35
17:408,3 °C 5,6 °C 5,0 °C 74 % 1029,9 hPa 0,0 mm - 0,0 km/h 0,0 km/h NW 21,0 W/qm 0,0 nein 17:40
17:458,2 °C 5,6 °C 5,0 °C 76 % 1030,0 hPa 0,0 mm - 0,0 km/h 0,0 km/h NW 19,0 W/qm 0,0 nein 17:45
17:508,1 °C 5,6 °C 5,0 °C 77 % 1030,0 hPa 0,0 mm - 1,4 km/h 3,2 km/h NW 18,0 W/qm 0,0 nein 17:50
17:557,9 °C 5,6 °C 5,0 °C 78 % 1030,2 hPa 0,0 mm - 0,0 km/h 3,2 km/h NW 14,0 W/qm 0,0 nein 17:55
UhrzeitTemperaturBoden 10cmBoden 20cmFeuchteLuftdruckNiederschlagEvapotranspirationWindWindböenWindrichtungSolarstrahlungUV-IndexSonne?Uhrzeit
18:007,8 °C 5,6 °C 5,0 °C 78 % 1030,3 hPa 0,0 mm - 0,0 km/h 3,2 km/h NW 11,0 W/qm 0,0 nein 18:00
18:057,7 °C 5,6 °C 5,0 °C 79 % 1030,4 hPa 0,0 mm 0,7 mm 0,0 km/h 3,2 km/h NW 9,0 W/qm 0,0 nein 18:05
18:107,6 °C 5,6 °C 5,0 °C 79 % 1030,4 hPa 0,0 mm 0,7 mm 0,0 km/h 3,2 km/h NW 7,0 W/qm 0,0 nein 18:10
18:157,6 °C 5,6 °C 5,0 °C 78 % 1030,4 hPa 0,0 mm - 0,0 km/h 3,2 km/h NW 5,0 W/qm 0,0 nein 18:15
18:207,5 °C 5,6 °C 5,0 °C 78 % 1030,5 hPa 0,0 mm - 0,0 km/h 1,4 km/h NW 0,0 W/qm 0,0 nein 18:20
18:257,4 °C 5,6 °C 5,0 °C 78 % 1030,6 hPa 0,0 mm - 0,0 km/h 1,4 km/h NW 0,0 W/qm 0,0 nein 18:25
18:307,2 °C 5,6 °C 5,0 °C 80 % 1030,7 hPa 0,0 mm - 0,0 km/h 0,0 km/h NW 0,0 W/qm 0,0 nein 18:30
18:357,0 °C 5,6 °C 5,0 °C 80 % 1030,7 hPa 0,0 mm - 0,0 km/h 0,0 km/h NW 0,0 W/qm 0,0 nein 18:35
18:406,9 °C 5,6 °C 5,0 °C 80 % 1030,7 hPa 0,0 mm - 0,0 km/h 0,0 km/h NW 0,0 W/qm 0,0 nein 18:40
18:456,8 °C 5,6 °C 5,0 °C 81 % 1030,8 hPa 0,0 mm - 0,0 km/h 0,0 km/h NW 0,0 W/qm 0,0 nein 18:45
18:506,7 °C 5,6 °C 5,0 °C 81 % 1031,0 hPa 0,0 mm - 0,0 km/h 0,0 km/h NW 0,0 W/qm 0,0 nein 18:50
18:556,4 °C 5,6 °C 5,0 °C 81 % 1031,1 hPa 0,0 mm - 0,0 km/h 0,0 km/h NW 0,0 W/qm 0,0 nein 18:55
19:006,2 °C 5,6 °C 5,0 °C 83 % 1031,0 hPa 0,0 mm - 0,0 km/h 0,0 km/h NW 0,0 W/qm 0,0 nein 19:00
19:056,3 °C 5,6 °C 5,0 °C 84 % 1031,2 hPa 0,0 mm 0,7 mm 1,4 km/h 3,2 km/h NW 0,0 W/qm 0,0 nein 19:05
19:106,3 °C 5,6 °C 5,0 °C 83 % 1031,2 hPa 0,0 mm 0,7 mm 0,0 km/h 3,2 km/h NW 0,0 W/qm 0,0 nein 19:10
19:156,4 °C 5,6 °C 5,0 °C 83 % 1031,2 hPa 0,0 mm - 0,0 km/h 3,2 km/h NW 0,0 W/qm 0,0 nein 19:15
19:206,4 °C 5,6 °C 5,0 °C 83 % 1031,3 hPa 0,0 mm - 0,0 km/h 3,2 km/h NW 0,0 W/qm 0,0 nein 19:20
19:256,4 °C 5,6 °C 5,0 °C 83 % 1031,3 hPa 0,0 mm - 0,0 km/h 1,4 km/h NW 0,0 W/qm 0,0 nein 19:25
19:306,2 °C 5,6 °C 5,0 °C 84 % 1031,3 hPa 0,0 mm - 0,0 km/h 1,4 km/h NW 0,0 W/qm 0,0 nein 19:30
19:356,1 °C 5,6 °C 5,0 °C 85 % 1031,5 hPa 0,0 mm - 0,0 km/h 0,0 km/h NW 0,0 W/qm 0,0 nein 19:35
19:406,1 °C 5,6 °C 5,0 °C 85 % 1031,5 hPa 0,0 mm - 0,0 km/h 0,0 km/h NW 0,0 W/qm 0,0 nein 19:40
19:456,1 °C 5,6 °C 5,0 °C 85 % 1031,5 hPa 0,0 mm - 0,0 km/h 1,4 km/h NW 0,0 W/qm 0,0 nein 19:45
19:506,1 °C 5,6 °C 5,0 °C 85 % 1031,6 hPa 0,0 mm - 0,0 km/h 3,2 km/h NW 0,0 W/qm 0,0 nein 19:50
19:556,1 °C 5,6 °C 5,0 °C 86 % 1031,7 hPa 0,0 mm - 0,0 km/h 3,2 km/h NW 0,0 W/qm 0,0 nein 19:55
UhrzeitTemperaturBoden 10cmBoden 20cmFeuchteLuftdruckNiederschlagEvapotranspirationWindWindböenWindrichtungSolarstrahlungUV-IndexSonne?Uhrzeit
20:006,0 °C 5,6 °C 5,0 °C 86 % 1031,7 hPa 0,0 mm - 0,0 km/h 3,2 km/h NW 0,0 W/qm 0,0 nein 20:00
20:056,1 °C 5,6 °C 5,0 °C 85 % 1031,8 hPa 0,0 mm 0,7 mm 0,0 km/h 0,0 km/h NW 0,0 W/qm 0,0 nein 20:05
20:106,2 °C 5,6 °C 5,0 °C 85 % 1031,9 hPa 0,0 mm 0,7 mm 0,0 km/h 0,0 km/h NW 0,0 W/qm 0,0 nein 20:10
20:156,1 °C 5,6 °C 5,0 °C 85 % 1031,9 hPa 0,0 mm - 0,0 km/h 0,0 km/h NW 0,0 W/qm 0,0 nein 20:15
20:206,1 °C 5,6 °C 5,0 °C 85 % 1031,9 hPa 0,0 mm - 0,0 km/h 3,2 km/h NW 0,0 W/qm 0,0 nein 20:20
20:256,1 °C 5,6 °C 5,0 °C 85 % 1032,0 hPa 0,0 mm - 0,0 km/h 3,2 km/h NW 0,0 W/qm 0,0 nein 20:25
20:306,1 °C 5,6 °C 5,0 °C 85 % 1032,1 hPa 0,0 mm - 0,0 km/h 3,2 km/h NW 0,0 W/qm 0,0 nein 20:30
20:356,2 °C 5,6 °C 5,0 °C 85 % 1032,2 hPa 0,0 mm - 0,0 km/h 3,2 km/h NW 0,0 W/qm 0,0 nein 20:35
20:406,1 °C 5,6 °C 5,6 °C 85 % 1032,2 hPa 0,0 mm - 0,0 km/h 3,2 km/h NW 0,0 W/qm 0,0 nein 20:40
20:456,1 °C 5,6 °C 5,6 °C 85 % 1032,3 hPa 0,0 mm - 0,0 km/h 0,0 km/h NW 0,0 W/qm 0,0 nein 20:45
20:506,1 °C 5,6 °C 5,6 °C 85 % 1032,4 hPa 0,0 mm - 0,0 km/h 0,0 km/h NW 0,0 W/qm 0,0 nein 20:50
20:556,2 °C 5,6 °C 5,6 °C 84 % 1032,4 hPa 0,0 mm - 0,0 km/h 0,0 km/h NW 0,0 W/qm 0,0 nein 20:55
21:006,3 °C 5,6 °C 5,6 °C 84 % 1032,5 hPa 0,0 mm - 0,0 km/h 0,0 km/h NW 0,0 W/qm 0,0 nein 21:00
21:056,3 °C 5,6 °C 5,6 °C 84 % 1032,6 hPa 0,0 mm 0,7 mm 0,0 km/h 0,0 km/h NW 0,0 W/qm 0,0 nein 21:05
21:106,3 °C 5,6 °C 5,6 °C 84 % 1032,6 hPa 0,0 mm 0,7 mm 0,0 km/h 3,2 km/h NW 0,0 W/qm 0,0 nein 21:10
21:156,4 °C 5,6 °C 5,6 °C 83 % 1032,7 hPa 0,0 mm - 0,0 km/h 4,7 km/h NW 0,0 W/qm 0,0 nein 21:15
21:206,7 °C 5,6 °C 5,6 °C 82 % 1032,7 hPa 0,0 mm - 0,0 km/h 4,7 km/h NW 0,0 W/qm 0,0 nein 21:20
21:256,8 °C 5,6 °C 5,6 °C 82 % 1032,7 hPa 0,0 mm - 0,0 km/h 4,7 km/h NO 0,0 W/qm 0,0 nein 21:25
21:306,7 °C 5,6 °C 5,6 °C 82 % 1032,8 hPa 0,0 mm - 0,0 km/h 3,2 km/h NO 0,0 W/qm 0,0 nein 21:30
21:356,9 °C 5,6 °C 5,6 °C 81 % 1032,8 hPa 0,0 mm - 1,4 km/h 3,2 km/h ONO 0,0 W/qm 0,0 nein 21:35
21:406,9 °C 5,6 °C 5,6 °C 80 % 1032,9 hPa 0,0 mm - 1,4 km/h 6,5 km/h NNO 0,0 W/qm 0,0 nein 21:40
21:457,0 °C 5,6 °C 5,6 °C 80 % 1032,9 hPa 0,0 mm - 1,4 km/h 6,5 km/h NO 0,0 W/qm 0,0 nein 21:45
21:507,1 °C 5,6 °C 5,6 °C 80 % 1033,0 hPa 0,0 mm - 3,2 km/h 6,5 km/h NO 0,0 W/qm 0,0 nein 21:50
21:557,1 °C 5,6 °C 5,6 °C 80 % 1033,0 hPa 0,0 mm - 1,4 km/h 6,5 km/h NNO 0,0 W/qm 0,0 nein 21:55
UhrzeitTemperaturBoden 10cmBoden 20cmFeuchteLuftdruckNiederschlagEvapotranspirationWindWindböenWindrichtungSolarstrahlungUV-IndexSonne?Uhrzeit
22:007,2 °C 5,6 °C 5,6 °C 79 % 1033,1 hPa 0,0 mm - 3,2 km/h 6,5 km/h NNO 0,0 W/qm 0,0 nein 22:00
22:057,2 °C 5,6 °C 5,6 °C 80 % 1033,1 hPa 0,0 mm 0,7 mm 3,2 km/h 7,9 km/h ONO 0,0 W/qm 0,0 nein 22:05
22:107,1 °C 5,6 °C 5,6 °C 80 % 1033,2 hPa 0,0 mm 0,7 mm 3,2 km/h 7,9 km/h ONO 0,0 W/qm 0,0 nein 22:10
22:157,1 °C 5,6 °C 5,6 °C 80 % 1033,2 hPa 0,0 mm - 3,2 km/h 7,9 km/h N 0,0 W/qm 0,0 nein 22:15
22:207,1 °C 5,6 °C 5,6 °C 80 % 1033,3 hPa 0,0 mm - 1,4 km/h 7,9 km/h NO 0,0 W/qm 0,0 nein 22:20
22:257,2 °C 5,6 °C 5,6 °C 80 % 1033,4 hPa 0,0 mm - 1,4 km/h 7,9 km/h ONO 0,0 W/qm 0,0 nein 22:25
22:307,2 °C 5,6 °C 5,6 °C 80 % 1033,4 hPa 0,0 mm - 1,4 km/h 7,9 km/h ONO 0,0 W/qm 0,0 nein 22:30
22:357,2 °C 5,6 °C 5,6 °C 80 % 1033,4 hPa 0,0 mm - 3,2 km/h 7,9 km/h ONO 0,0 W/qm 0,0 nein 22:35
22:407,2 °C 5,6 °C 5,6 °C 81 % 1033,5 hPa 0,0 mm - 3,2 km/h 11,2 km/h ONO 0,0 W/qm 0,0 nein 22:40
22:457,2 °C 5,6 °C 5,6 °C 81 % 1033,6 hPa 0,0 mm - 4,7 km/h 11,2 km/h ONO 0,0 W/qm 0,0 nein 22:45
22:507,2 °C 5,6 °C 5,6 °C 81 % 1033,6 hPa 0,0 mm - 4,7 km/h 13,0 km/h NO 0,0 W/qm 0,0 nein 22:50
22:557,2 °C 5,6 °C 5,6 °C 81 % 1033,6 hPa 0,0 mm - 4,7 km/h 13,0 km/h NNW 0,0 W/qm 0,0 nein 22:55
23:007,1 °C 5,6 °C 5,6 °C 81 % 1033,8 hPa 0,0 mm - 3,2 km/h 13,0 km/h ONO 0,0 W/qm 0,0 nein 23:00
23:057,1 °C 5,6 °C 5,6 °C 82 % 1033,7 hPa 0,0 mm 0,7 mm 1,4 km/h 11,2 km/h ONO 0,0 W/qm 0,0 nein 23:05
23:107,1 °C 5,6 °C 5,6 °C 82 % 1033,7 hPa 0,0 mm 0,7 mm 1,4 km/h 11,2 km/h NO 0,0 W/qm 0,0 nein 23:10
23:157,0 °C 5,6 °C 5,6 °C 82 % 1033,7 hPa 0,0 mm - 1,4 km/h 6,5 km/h ONO 0,0 W/qm 0,0 nein 23:15
23:206,9 °C 5,6 °C 5,6 °C 82 % 1033,7 hPa 0,0 mm - 1,4 km/h 7,9 km/h NO 0,0 W/qm 0,0 nein 23:20
23:257,0 °C 5,6 °C 5,6 °C 83 % 1033,8 hPa 0,0 mm - 1,4 km/h 7,9 km/h NNW 0,0 W/qm 0,0 nein 23:25
23:306,9 °C 5,6 °C 5,6 °C 83 % 1033,8 hPa 0,0 mm - 3,2 km/h 11,2 km/h N 0,0 W/qm 0,0 nein 23:30
23:356,9 °C 5,6 °C 5,6 °C 83 % 1033,8 hPa 0,0 mm - 1,4 km/h 11,2 km/h NW 0,0 W/qm 0,0 nein 23:35
23:407,0 °C 5,6 °C 5,6 °C 83 % 1033,8 hPa 0,0 mm - 1,4 km/h 11,2 km/h N 0,0 W/qm 0,0 nein 23:40
23:457,0 °C 5,6 °C 5,6 °C 83 % 1033,9 hPa 0,0 mm - 1,4 km/h 11,2 km/h ONO 0,0 W/qm 0,0 nein 23:45
23:506,9 °C 5,6 °C 5,6 °C 83 % 1033,9 hPa 0,0 mm - 1,4 km/h 11,2 km/h ONO 0,0 W/qm 0,0 nein 23:50
23:556,9 °C 5,6 °C 5,6 °C 83 % 1033,9 hPa 0,0 mm - 3,2 km/h 7,9 km/h N 0,0 W/qm 0,0 nein 23:55
Gesamt: 6,4 °C 5,1 °C 5,1 °C 79 % 1028,4 hPa 0,0 mm 15,8 mm 1,2 km/h 5,5 km/h 0 56,8 W/qm 0,0 nein

Insgesamt 288 Zeilen mal 13 Spalten = 3744 Werte werden angezeigt.

www.wetter-rosstal.de   •   www.wetter-franken.de   •   www.lightningmaps.org   •   Start   •   Kontakt / Datenschutz   •   PC-Kümmerer